Regional Weather Roundup
Issued by NWS

Home | Current Version | Previous Version | Graphics & Text | Print | Product List | Glossary On
Versions: 1 2 3 4 5 6 7 8 9 10 11 12 13 14 15 16 17 18 19 20 21 22 23 24 25 26 27 28 29 30 31 32 33 34 35 36 37 38 39 40 41 42 43 44 45 46 47 48 49 50
000
ASUS43 KOAX 201902
RWRNE

WEATHER ROUNDUP FOR NEBRASKA
NATIONAL WEATHER SERVICE OMAHA NE
200 PM CDT FRI OCT 20 2017

NOTES: SATELLITE DATA IS BEING USED TO AUGMENT CLOUD COVER ABOVE
       12000 FEET.
       "FAIR" INDICATES FEW OR NO CLOUDS BELOW 12,000 FEET WITH NO
       SIGNIFICANT WEATHER AND/OR OBSTRUCTIONS TO VISIBILITY.


NEZ001>004-019>022-054>056-202000-
NEBRASKA PANHANDLE

CITY           SKY/WX    TMP DP  RH WIND       PRES   REMARKS
SCOTTSBLUFF    SUNNY     76  38  25 SE7       29.53F
ALLIANCE       SUNNY     71  42  35 S10       29.55F
CHADRON        SUNNY     81  35  19 S15       29.46F
GORDON         FAIR      75  45  34 S7        29.52F
KIMBALL        SUNNY     77  31  18 S13       29.60F
SIDNEY         SUNNY     76  41  28 S14       29.59F
$$

NEZ057>060-069>072-079>082-202000-
SOUTHWEST NEBRASKA

CITY           SKY/WX    TMP DP  RH WIND       PRES   REMARKS
NORTH PLATTE   MOSUNNY   72  53  51 S21G28    29.59F
IMPERIAL       SUNNY     70  51  51 S17G28    29.60F
LEXINGTON      MOSUNNY   72  53  51 S23G30    29.63F
MCCOOK         SUNNY     76  52  43 S25G35    29.60F
OGALLALA       SUNNY     71  52  50 S12G18    29.59F
$$

NEZ005>010-023>029-035>040-094-202000-
NORTH CENTRAL NEBRASKA

CITY           SKY/WX    TMP DP  RH WIND       PRES   REMARKS
VALENTINE      SUNNY     78  50  37 S26G35    29.53F
AINSWORTH      SUNNY     71  53  53 S15G28    29.57F
BROKEN BOW     PTSUNNY   69  54  58 S26G36    29.62F
O`NEILL        MOSUNNY   71  55  58 S22G29    29.63F
ORD            MOSUNNY   73  54  51 S23G36    29.61F
THEDFORD       SUNNY     72  51  48 S22G30    29.58F
$$

NEZ041-046>049-061>064-073>077-083>087-202000-
SOUTH CENTRAL NEBRASKA

CITY           SKY/WX    TMP DP  RH WIND       PRES   REMARKS
GRAND ISLAND   SUNNY     75  57  53 S23G35    29.68F
AURORA         SUNNY     74  56  51 S16G31    29.70F
HASTINGS       SUNNY     74  55  51 S24G33    29.70F
HEBRON         MOSUNNY   77  58  52 S20G28    29.75F
HOLDREGE       SUNNY     72  55  55 S25G37    29.65F
KEARNEY        SUNNY     72  55  55 S28G37    29.66F
YORK           SUNNY     75  57  53 S23G31    29.72F
$$

NEZ011>018-030>034-042>045-202000-
NORTHEAST NEBRASKA

CITY           SKY/WX    TMP DP  RH WIND       PRES   REMARKS
NORFOLK        MOSUNNY   75  55  49 S25G36    29.67F
ALBION         SUNNY     75  55  49 S26G36    29.67F
BLAIR          SUNNY     77  58  51 S21G29    29.79F
COLUMBUS       MOSUNNY   74  57  55 S20G33    29.72F
FREMONT        MOSUNNY   77  56  48 S24G30    29.76F
TEKAMAH        SUNNY     78  56  46 S20G30    29.76F
WAYNE          MOSUNNY   73  53  49 S24       29.71F
$$

NEZ050>053-065>068-078-088>093-202000-
SOUTHEAST NEBRASKA

CITY           SKY/WX    TMP DP  RH WIND       PRES   REMARKS
LINCOLN        MOSUNNY   76  58  53 S29G38    29.77F
OMAHA EPPLEY   PTSUNNY   76  57  51 S28G35    29.80F
BEATRICE       CLOUDY    73  59  62 S25       29.78F
FALLS CITY     PTSUNNY   75  58  55 S21G30    29.86F
NEBRASKA CITY  CLOUDY    75  60  60 S25       29.84F
PLATTSMOUTH    MOSUNNY   74  59  59 S20G28    29.82F
$$

NEZ044-045-051>053-067-202000-
OMAHA AREA

CITY           SKY/WX    TMP DP  RH WIND       PRES   REMARKS
OMAHA EPPLEY   PTSUNNY   76  57  51 S28G35    29.80F
BLAIR          SUNNY     77  58  51 S21G29    29.79F
FREMONT        MOSUNNY   77  56  48 S24G30    29.76F
MILLARD        MOSUNNY   76  59  56 S16G30    29.80F
OFFUTT AFB     SUNNY     73  57  56 SE22G30   29.80F
PLATTSMOUTH    MOSUNNY   74  59  59 S20G28    29.82F
WAHOO          FAIR      77  55  46 S23G31    29.76F
$$




USA.gov is the U.S. government's official web portal to all federal, state and local government web resources and services.